Location: Kuffner-Sternwarte
(48.2130°N, 16.2960°E)
Time: 05:43:20
(UTC+02:00)

Envisat - Pass Details

Date: 23 September 2024
Orbit: 762 x 764 km, 98.3° (Epoch: 04 October)

Event Time Altitude Azimuth Distance (km) Brightness Sun altitude
Rises 04:23:11 0° 12° (NNE) 3,237 6.8 -23.2°
Reaches altitude 10° 04:25:30 10° 11° (NNE) 2,307 6.0 -22.9°
Maximum altitude 04:30:35 77° 287° (WNW) 787 2.9 -22.1°
Enters shadow 04:32:02 47° 212° (SSW) 1,005 3.2 -21.9°
